Volver al catálogo

STARLINK-35749

ActivoComunicacionesVLEO
NORAD 66879·PAYLOAD·🇺🇸 United States

Lanzado Dec 4, 2025 desde Vandenberg Space Force Base

Loading…

Próximos Pases (próximas 24 horas)

TLE

ActualizadoSource: CelesTrak SupGP

Época: Sep 15, 2026, 03:51 UTC

1 66879C 25283B   26258.16090278 -.00058306  00000+0 -17229-2 0  2586
2 66879  53.1577 222.9112 0001453  93.3277 125.6309 15.34414655    14

Sigue STARLINK-35749 en tiempo real con AllMySat

Download on the App Store